TimeCST,TemperatureF,Dew PointF,Humidity,Sea Level PressureIn,VisibilityMPH,Wind Direction,Wind SpeedMPH,Gust SpeedMPH,PrecipitationIn,Events,Conditions,WindDirDegrees,DateUTC
12:53 AM,36.0,21.0,55,30.09,10.0,South,11.5,-,N/A,,Clear,180,2012-12-13 06:53:00
1:53 AM,36.0,19.9,52,30.08,10.0,South,9.2,-,N/A,,Clear,170,2012-12-13 07:53:00
2:53 AM,36.0,19.9,52,30.08,10.0,South,13.8,-,N/A,,Clear,180,2012-12-13 08:53:00
3:53 AM,35.1,19.9,54,30.05,10.0,South,12.7,-,N/A,,Clear,170,2012-12-13 09:53:00
4:53 AM,35.1,19.9,54,30.06,10.0,SSE,9.2,-,N/A,,Clear,150,2012-12-13 10:53:00
6:53 AM,34.0,19.0,54,30.04,10.0,ESE,6.9,-,N/A,,Clear,120,2012-12-13 12:53:00
7:53 AM,33.1,19.0,56,30.05,10.0,ESE,5.8,-,N/A,,Clear,120,2012-12-13 13:53:00
8:53 AM,33.1,19.9,59,30.06,10.0,SSE,8.1,-,N/A,,Clear,150,2012-12-13 14:53:00
9:53 AM,37.0,21.0,52,30.06,10.0,South,13.8,-,N/A,,Clear,190,2012-12-13 15:53:00
10:53 AM,37.9,21.0,51,30.04,10.0,SSW,16.1,-,N/A,,Clear,200,2012-12-13 16:53:00
11:53 AM,37.9,23.0,55,30.04,10.0,SSW,12.7,-,N/A,,Clear,210,2012-12-13 17:53:00
12:53 PM,39.9,21.9,49,30.04,10.0,SW,10.4,-,N/A,,Clear,230,2012-12-13 18:53:00
1:53 PM,39.9,24.1,53,30.04,10.0,SW,3.5,-,N/A,,Clear,220,2012-12-13 19:53:00
2:53 PM,39.9,24.1,53,30.04,10.0,SSW,9.2,-,N/A,,Clear,210,2012-12-13 20:53:00
3:53 PM,37.9,23.0,55,30.06,10.0,SW,3.5,-,N/A,,Clear,220,2012-12-13 21:53:00
7:53 PM,30.0,25.0,82,30.12,10.0,Calm,Calm,-,N/A,,Clear,0,2012-12-14 01:53:00
8:53 PM,28.0,24.1,85,30.13,10.0,Calm,Calm,-,N/A,,Clear,0,2012-12-14 02:53:00
9:53 PM,26.1,23.0,88,30.14,10.0,Calm,Calm,-,N/A,,Clear,0,2012-12-14 03:53:00
10:53 PM,23.0,21.0,92,30.15,9.0,Calm,Calm,-,N/A,,Clear,0,2012-12-14 04:53:00
11:53 PM,25.0,21.9,88,30.17,7.0,Calm,Calm,-,N/A,,Clear,0,2012-12-14 05:53:00